User: anonymous   Login
Location: Bats
(43.6587°N, 0.4584°W)
Time: 19:50:25
(UTC+00:00)
Language:

Cosmos 1500 Rocket - Orbit

View from above orbital plane
View from above orbital plane
View from above satellite
View from above satellite

Ground track
Ground track

The orbit is defined by the following mean orbital elements,

1 14373U          26073.55881272 +.00000000 +00000-0 +56340-4 0 00009
2 14373  82.5398 137.9898 0020695 119.8756 240.4520 14.86239288    07
Epoch (UTC): 14 March 2026 13:24:41
Eccentricity: 0.0020695
inclination: 82.5398°
perigee height: 595 km
apogee height: 624 km
right ascension of ascending node: 137.9898°
argument of perigee: 119.8756°
revolutions per day: 14.86239288
mean anomaly at epoch: 240.4520°

The dashed part of the orbit path shows where the satellite is in the earth's shadow,  

DLR